Location: St Paul
(33.9360°N, 83.4200°W)
Time: 11:49:00
(UTC-05:00)

HJ-1C - Pass Details

Date: 06 October 2017
Orbit: 440 x 458 km, 97.2° (Epoch: 18 December)

Event Time Altitude Azimuth Distance (km) Brightness Sun altitude
Exits shadow 20:47:54 66° 1° (N) 490 3.5 -20.9°
Drops below altitude 10° 20:50:51 10° 350° (N) 1,575 6.4 -21.5°
Sets 20:52:54 0° 350° (N) 2,454 7.4 -22.0°
